TimeEDT,TemperatureF,Dew PointF,Humidity,Sea Level PressureIn,VisibilityMPH,Wind Direction,Wind SpeedMPH,Gust SpeedMPH,PrecipitationIn,Events,Conditions,WindDirDegrees,DateUTC
12:53 AM,77.0,64.0,64,30.17,10.0,East,13.8,19.6,N/A,,Partly Cloudy,80,2013-05-27 04:53:00
1:53 AM,75.9,66.0,71,30.14,10.0,ENE,12.7,-,N/A,,Clear,70,2013-05-27 05:53:00
2:53 AM,75.9,66.0,71,30.12,10.0,East,12.7,-,N/A,,Partly Cloudy,100,2013-05-27 06:53:00
3:53 AM,77.0,66.0,69,30.11,10.0,East,10.4,-,N/A,,Partly Cloudy,80,2013-05-27 07:53:00
4:53 AM,77.0,66.0,69,30.10,10.0,East,10.4,-,N/A,,Clear,80,2013-05-27 08:53:00
5:53 AM,77.0,68.0,74,30.10,10.0,East,10.4,-,N/A,,Clear,90,2013-05-27 09:53:00
6:53 AM,77.0,69.1,76,30.11,10.0,East,12.7,-,N/A,,Scattered Clouds,90,2013-05-27 10:53:00
7:30 AM,78.8,69.8,74,30.12,10.0,East,15.0,18.4,N/A,,Mostly Cloudy,90,2013-05-27 11:30:00
7:45 AM,78.8,69.8,74,30.12,10.0,East,11.5,-,N/A,,Scattered Clouds,90,2013-05-27 11:45:00
7:53 AM,79.0,69.1,72,30.13,10.0,East,15.0,21.9,N/A,,Scattered Clouds,100,2013-05-27 11:53:00
8:53 AM,80.1,70.0,71,30.13,10.0,ENE,13.8,20.7,N/A,,Partly Cloudy,70,2013-05-27 12:53:00
9:53 AM,81.0,70.0,69,30.14,10.0,ENE,17.3,20.7,N/A,,Scattered Clouds,70,2013-05-27 13:53:00
10:53 AM,82.0,72.0,71,30.14,10.0,East,15.0,23.0,N/A,,Scattered Clouds,80,2013-05-27 14:53:00
11:00 AM,80.6,71.6,74,30.14,10.0,East,13.8,20.7,N/A,,Overcast,90,2013-05-27 15:00:00
11:07 AM,82.4,71.6,70,30.14,10.0,ENE,13.8,20.7,N/A,,Scattered Clouds,70,2013-05-27 15:07:00
11:53 AM,82.0,72.0,71,30.15,10.0,East,15.0,21.9,N/A,,Scattered Clouds,90,2013-05-27 15:53:00
12:53 PM,82.9,71.1,67,30.15,10.0,ENE,17.3,-,N/A,,Scattered Clouds,70,2013-05-27 16:53:00
1:53 PM,84.0,71.1,65,30.15,10.0,East,17.3,-,N/A,,Scattered Clouds,80,2013-05-27 17:53:00
2:53 PM,84.9,71.1,63,30.13,10.0,ENE,13.8,-,N/A,,Partly Cloudy,70,2013-05-27 18:53:00
3:53 PM,84.0,71.1,65,30.10,10.0,ENE,16.1,23.0,N/A,,Scattered Clouds,70,2013-05-27 19:53:00
4:53 PM,82.9,70.0,65,30.08,10.0,ENE,16.1,-,N/A,,Partly Cloudy,70,2013-05-27 20:53:00
5:53 PM,81.0,71.1,72,30.08,10.0,East,13.8,-,N/A,,Mostly Cloudy,90,2013-05-27 21:53:00
6:21 PM,80.6,71.6,74,30.08,10.0,East,16.1,21.9,N/A,,Mostly Cloudy,90,2013-05-27 22:21:00
6:53 PM,80.1,71.1,74,30.08,10.0,East,16.1,-,N/A,,Scattered Clouds,80,2013-05-27 22:53:00
7:53 PM,80.1,72.0,76,30.09,10.0,East,16.1,-,N/A,,Mostly Cloudy,90,2013-05-27 23:53:00
8:41 PM,78.8,73.4,83,30.08,10.0,East,15.0,25.3,N/A,,Mostly Cloudy,80,2013-05-28 00:41:00
8:51 PM,78.8,71.6,78,30.08,10.0,East,20.7,26.5,N/A,,Mostly Cloudy,90,2013-05-28 00:51:00
8:53 PM,79.0,72.0,79,30.09,10.0,East,19.6,26.5,N/A,,Scattered Clouds,90,2013-05-28 00:53:00
9:53 PM,79.0,72.0,79,30.10,10.0,East,19.6,28.8,N/A,,Scattered Clouds,80,2013-05-28 01:53:00
10:23 PM,78.8,73.4,83,30.11,10.0,East,18.4,27.6,N/A,,Mostly Cloudy,80,2013-05-28 02:23:00
10:36 PM,78.8,71.6,78,30.11,10.0,East,16.1,24.2,N/A,,Mostly Cloudy,80,2013-05-28 02:36:00
10:53 PM,79.0,73.0,82,30.11,10.0,East,13.8,23.0,N/A,,Mostly Cloudy,90,2013-05-28 02:53:00
11:53 PM,79.0,72.0,79,30.12,10.0,East,16.1,24.2,N/A,,Mostly Cloudy,90,2013-05-28 03:53:00